COSMOS 1408 DEB

基本信息
目录编号:
50621
目录名称:
COSMOS 1408 DEB
国际标识:
1982-092ALR
轨道中心:
EARTH
物体状态:
在轨
发射日期:
1982-09-16 UTC
轨道信息
数据来源: 国际轨道数据
星历时间: 2026-09-04T12:20:33+0800
半长轴: 6721.23km
偏心率: 0.0014242
轨道倾角: 82.565°
近地点辐角: 232.316°
升交点赤经: 154.013°
平近点角: 127.682°
近地点: 333.52km
远地点: 352.666km
周期: 91.397分钟
每日圈数: 15.755409
详细信息
发射场:
PKMTR
轨道高度:
LEO
数据来源:
AOE Integration Group
参考系:
TEME
时间系统:
UTC
历元类型:
SGP4
2D轨道图
3D轨道图
轨道高度分析图
轨道倾角分析图
轨道综合分析图
查看轨道综合分析图